1487037600.43,62872,10.38,74268.5,-9.53,-35.47,-35.95,0,*59
1487037601.66,62873,10.38,74266.5,-9.51,-35.65,-35.89,0,*57
1487037602.88,62874,10.38,74268.5,-9.51,-35.53,-35.89,0,*55
1487037604.11,62875,10.38,74266.5,-9.51,-35.35,-35.71,0,*53
1487037605.36,62876,10.38,74266.8,-9.51,-35.35,-35.83,0,*5D
1487037606.61,62877,10.38,74268.0,-9.51,-35.65,-35.95,0,*5E
1487037607.86,62878,10.38,74268.8,-9.51,-35.65,-35.95,0,*51
1487037609.12,62879,10.38,74270.0,-9.53,-35.35,-35.71,0,*5D
1487037610.39,62880,10.38,74266.5,-9.53,-35.53,-35.83,0,*56
1487037611.65,62881,10.38,74268.0,-9.53,-35.47,-35.83,0,*52
1487037612.9,62882,10.38,74272.3,-9.51,-35.35,-35.83,0,*56
1487037614.13,62883,10.38,74268.3,-9.51,-35.47,-35.83,0,*52
1487037615.38,62884,10.38,74272.0,-9.51,-35.35,-35.83,0,*50
1487037616.64,62885,10.38,74268.5,-9.53,-35.53,-35.89,0,*59
1487037617.9,62886,10.38,74270.8,-9.53,-35.53,-35.89,0,*5A
1487037619.15,62887,10.38,74268.8,-9.53,-35.65,-36.07,0,*5B
1487037620.43,62888,10.38,74268.5,-9.53,-35.35,-35.83,0,*5E
1487037621.66,62889,10.38,74274.0,-9.53,-35.47,-35.71,0,*57
1487037622.91,62890,10.38,74268.5,-9.53,-35.17,-35.53,0,*5A
1487037624.14,62891,10.38,74266.3,-9.51,-35.29,-35.53,0,*54
1487037625.37,62892,10.38,74266.5,-9.51,-35.47,-35.83,0,*52
1487037626.62,62893,10.38,74266.5,-9.53,-35.35,-35.71,0,*59
1487037627.88,62894,10.38,74272.5,-9.53,-35.47,-35.83,0,*56
1487037629.14,62895,10.38,74268.0,-9.53,-35.53,-35.89,0,*58
1487037630.4,62896,10.38,74268.8,-9.53,-35.65,-35.89,0,*5E
1487037631.64,62897,10.38,74268.0,-9.53,-35.47,-35.89,0,*5F
1487037632.92,62898,10.38,74268.8,-9.53,-35.35,-35.83,0,*5F
1487037634.14,62899,10.38,74268.8,-9.51,-35.17,-35.53,0,*51
1487037635.34,62900,10.38,74268.0,-9.51,-35.13,-35.47,0,*51
1487037636.6,62901,10.38,74266.5,-9.53,-35.29,-35.53,0,*5E
1487037637.82,62902,10.38,74264.3,-9.51,-35.35,-35.71,0,*52
1487037639.04,62903,10.38,74266.0,-9.51,-35.35,-35.71,0,*53
1487037640.3,62904,10.38,74264.3,-9.53,-35.17,-35.53,0,*56
1487037641.57,62905,10.38,74264.3,-9.53,-35.53,-35.83,0,*5A
1487037642.82,62906,10.38,74266.8,-9.51,-35.53,-35.83,0,*5B
1487037644.04,62907,10.38,74270.3,-9.51,-35.35,-35.71,0,*57
1487037645.27,62908,10.38,74270.5,-9.51,-35.29,-35.65,0,*50
1487037646.49,62909,10.38,74270.3,-9.51,-35.29,-35.65,0,*51
1487037647.75,62910,10.38,74262.8,-9.53,-35.13,-35.53,0,*57
1487037648.99,62911,10.38,74274.3,-9.51,-35.35,-35.65,0,*55
1487037650.24,62912,10.38,74268.3,-9.53,-35.17,-35.65,0,*54
1487037651.53,62913,10.38,74268.0,-9.53,-35.35,-35.83,0,*5D
1487037652.75,62914,10.38,74270.3,-9.51,-35.35,-35.71,0,*55
1487037654.0,62915,10.38,74270.3,-9.51,-35.35,-35.83,0,*59
1487037655.2,62916,10.38,74270.5,-9.51,-35.47,-35.71,0,*52
1487037656.48,62917,10.38,74268.5,-9.53,-35.35,-35.83,0,*59
1487037657.68,62918,10.38,74268.3,-9.51,-35.47,-35.71,0,*5C
1487037658.9,62919,10.38,74270.8,-9.51,-35.35,-35.71,0,*58
1487037660.18,62920,10.38,74268.8,-9.53,-35.35,-35.83,0,*5D
1487037661.47,62921,10.38,74270.8,-9.53,-35.35,-35.83,0,*5C
1487037662.73,62922,10.38,74268.5,-9.53,-35.47,-35.83,0,*5A
1487037663.99,62923,10.38,74268.8,-9.53,-35.35,-35.89,0,*54
1487037665.27,62924,10.38,74270.3,-9.53,-35.35,-35.83,0,*59
1487037666.55,62925,10.38,74264.5,-9.53,-35.35,-35.83,0,*58
1487037667.8,62926,10.38,74268.5,-9.53,-35.17,-35.65,0,*53
1487037669.06,62927,10.38,74262.3,-9.53,-35.01,-35.35,0,*50
1487037670.27,62928,10.38,74264.0,-9.51,-35.01,-35.47,0,*58
1487037671.49,62929,10.38,74262.5,-9.51,-35.17,-35.65,0,*5E
1487037672.72,62930,10.38,74260.0,-9.51,-35.47,-35.65,0,*53
1487037673.97,62931,10.38,74260.5,-9.53,-35.47,-35.83,0,*58
1487037675.25,62932,10.38,74262.5,-9.53,-35.53,-35.83,0,*5E
1487037676.51,62933,10.38,74262.0,-9.53,-35.47,-35.83,0,*5A
1487037677.76,62934,10.38,74264.3,-9.53,-35.17,-35.65,0,*50
1487037678.96,62935,10.38,74272.5,-9.51,-35.29,-35.71,0,*5B
1487037680.19,62936,10.38,74270.0,-9.51,-35.13,-35.35,0,*51
1487037681.42,62937,10.38,74260.3,-9.51,-34.95,-35.29,0,*52
1487037682.64,62938,10.38,74262.8,-9.51,-35.17,-35.65,0,*5E
1487037683.87,62939,10.38,74260.5,-9.51,-35.29,-35.65,0,*52
1487037685.1,62940,10.38,74260.5,-9.51,-35.29,-35.53,0,*59
1487037686.32,62941,10.38,74264.5,-9.51,-35.29,-35.65,0,*5D
1487037687.55,62942,10.38,74264.3,-9.51,-35.29,-35.65,0,*5E
1487037688.75,62943,10.38,74264.3,-9.51,-35.47,-35.71,0,*52
1487037689.97,62944,10.38,74268.0,-9.51,-35.29,-35.65,0,*58
1487037691.23,62945,10.38,74266.5,-9.53,-35.29,-35.53,0,*5E
1487037692.45,62946,10.38,74268.0,-9.51,-35.17,-35.65,0,*57
1487037693.67,62947,10.38,74264.3,-9.51,-35.17,-35.53,0,*53
1487037694.9,62948,10.38,74268.0,-9.51,-35.13,-35.53,0,*58
1487037696.12,62949,10.38,74264.0,-9.51,-35.13,-35.53,0,*59
1487037697.4,62950,10.38,74266.3,-9.49,-35.23,-35.65,0,*5E
1487037698.65,62951,10.38,74264.3,-9.49,-35.41,-35.77,0,*58
1487037699.86,62952,10.38,74266.0,-9.51,-35.01,-35.29,0,*5D
1487037701.1,62953,10.38,74264.0,-9.51,-34.95,-35.29,0,*50
1487037702.32,62954,10.38,74270.0,-9.51,-35.17,-35.65,0,*54
1487037703.54,62955,10.38,74268.8,-9.51,-35.29,-35.65,0,*58
1487037704.77,62956,10.38,74268.3,-9.51,-35.29,-35.65,0,*5B
1487037705.99,62957,10.38,74264.3,-9.51,-35.35,-35.71,0,*52
1487037707.22,62958,10.38,74264.5,-9.53,-35.29,-35.71,0,*52
1487037708.45,62959,10.38,74266.3,-9.51,-35.29,-35.53,0,*51
1487037709.68,62960,10.38,74266.0,-9.51,-35.29,-35.65,0,*5E
1487037710.88,62961,10.38,74264.3,-9.51,-35.47,-35.89,0,*55
1487037712.09,62962,10.38,74264.5,-9.51,-35.47,-35.89,0,*56
1487037713.33,62963,10.38,74268.0,-9.53,-35.47,-35.89,0,*55
1487037714.55,62964,10.38,74268.3,-9.51,-35.35,-35.71,0,*52
1487037715.8,62965,10.38,74266.3,-9.51,-35.35,-35.65,0,*56
1487037717.05,62966,10.38,74268.0,-9.51,-35.35,-35.83,0,*5D
1487037718.28,62967,10.38,74268.3,-9.51,-35.53,-35.89,0,*56
1487037719.48,62968,10.38,74260.5,-9.51,-35.47,-35.71,0,*5B
1487037720.68,62969,10.38,74266.5,-9.51,-35.29,-35.71,0,*52
1487037721.91,62970,10.38,74264.3,-9.51,-35.29,-35.53,0,*5A
1487037723.13,62971,10.38,74264.0,-9.51,-35.29,-35.65,0,*5E
1487037724.36,62972,10.38,74266.8,-9.51,-35.29,-35.65,0,*5D
1487037725.61,62973,10.38,74268.8,-9.49,-35.23,-35.59,0,*50
1487037726.81,62974,10.38,74264.8,-9.51,-35.29,-35.47,0,*5B
1487037728.06,62975,10.38,74262.5,-9.51,-35.35,-35.65,0,*57
1487037729.29,62976,10.38,74260.3,-9.49,-35.47,-35.77,0,*5B
1487037730.55,62977,10.38,74262.8,-9.49,-35.29,-35.65,0,*51
1487037731.8,62978,10.38,74266.8,-9.49,-35.29,-35.65,0,*5E
1487037733.07,62979,10.38,74264.5,-9.49,-35.23,-35.65,0,*55
1487037734.29,62980,10.38,74266.3,-9.51,-35.35,-35.71,0,*58
1487037735.52,62981,10.38,74264.8,-9.51,-35.35,-35.71,0,*59
1487037736.74,62982,10.38,74262.3,-9.51,-35.17,-35.65,0,*5F
1487037737.97,62983,10.38,74264.3,-9.51,-35.47,-35.83,0,*53
1487037739.21,62984,10.38,74266.5,-9.51,-35.35,-35.65,0,*59
1487037740.46,62985,10.38,74266.0,-9.49,-35.29,-35.65,0,*5C
1487037741.74,62986,10.38,74272.0,-9.53,-35.35,-35.53,0,*5C
1487037742.97,62987,10.38,74270.0,-9.51,-35.29,-35.53,0,*52
1487037744.22,62988,10.38,74266.3,-9.49,-35.29,-35.65,0,*51
1487037745.47,62989,10.38,74266.5,-9.51,-35.53,-35.83,0,*5C
1487037746.69,62990,10.38,74268.0,-9.51,-35.53,-35.89,0,*5E
1487037747.95,62991,10.38,74268.3,-9.49,-35.29,-35.65,0,*59
1487037749.17,62992,10.38,74264.0,-9.51,-35.29,-35.65,0,*53
1487037750.37,62993,10.38,74266.3,-9.51,-35.47,-35.71,0,*5F
1487037751.6,62994,10.38,74266.3,-9.51,-35.47,-35.83,0,*55
1487037752.82,62995,10.38,74266.3,-9.51,-35.35,-35.71,0,*5C
1487037754.05,62996,10.38,74262.0,-9.51,-35.29,-35.65,0,*57
1487037755.27,62997,10.38,74266.3,-9.51,-35.29,-35.65,0,*56
1487037756.49,62998,10.38,74266.3,-9.51,-35.35,-35.71,0,*51
1487037757.72,62999,10.38,74266.5,-9.51,-35.35,-35.71,0,*50
1487037758.97,63000,10.38,74266.8,-9.51,-35.53,-35.95,0,*52
1487037760.16,63001,10.38,74262.8,-9.51,-35.47,-35.71,0,*5C
1487037761.4,63002,10.38,74266.5,-9.51,-35.65,-35.89,0,*58
1487037762.65,63003,10.38,74266.5,-9.49,-35.41,-35.77,0,*57
1487037763.87,63004,10.38,74268.3,-9.51,-35.35,-35.71,0,*5C
1487037765.07,63005,10.38,74266.8,-9.51,-35.29,-35.71,0,*50
1487037766.29,63006,10.38,74266.0,-9.51,-35.17,-35.65,0,*5B
1487037767.52,63007,10.38,74268.3,-9.51,-35.29,-35.65,0,*57
1487037768.74,63008,10.38,74268.5,-9.51,-35.35,-35.71,0,*50
1487037769.94,63009,10.38,74268.3,-9.51,-35.47,-35.71,0,*54
1487037771.15,63010,10.38,74266.0,-9.51,-35.53,-35.71,0,*59
1487037772.41,63011,10.38,74266.3,-9.51,-35.35,-35.83,0,*55
1487037773.63,63012,10.38,74266.3,-9.51,-35.35,-35.71,0,*5B
1487037774.85,63013,10.38,74270.8,-9.51,-35.35,-35.71,0,*5A
1487037776.1,63014,10.38,74268.5,-9.51,-35.35,-35.83,0,*50
1487037777.32,63015,10.38,74264.3,-9.51,-35.35,-35.71,0,*5C
1487037778.55,63016,10.38,74266.0,-9.51,-35.29,-35.53,0,*52
1487037779.81,63017,10.38,74266.0,-9.53,-35.29,-35.53,0,*51
1487037781.09,63018,10.38,74268.5,-9.53,-35.35,-35.65,0,*56
1487037782.32,63019,10.38,74264.8,-9.51,-35.35,-35.89,0,*57
1487037783.52,63020,10.38,74266.5,-9.51,-35.47,-35.71,0,*5F
1487037784.77,63021,10.38,74266.3,-9.53,-35.17,-35.53,0,*59
1487037786.0,63022,10.38,74268.5,-9.49,-35.13,-35.47,0,*50
1487037787.22,63023,10.38,74268.3,-9.51,-35.17,-35.65,0,*5C
1487037788.44,63024,10.38,74270.3,-9.51,-35.29,-35.65,0,*56
1487037789.67,63025,10.38,74268.3,-9.51,-35.35,-35.71,0,*5F
1487037790.86,63026,10.38,74268.5,-9.51,-35.47,-35.71,0,*59
1487037792.09,63027,10.38,74264.8,-9.51,-35.29,-35.53,0,*50
1487037793.32,63028,10.38,74270.5,-9.51,-35.29,-35.53,0,*5F
1487037794.55,63029,10.38,74270.5,-9.51,-35.29,-35.83,0,*53
1487037795.78,63030,10.38,74266.5,-9.51,-35.47,-35.83,0,*53
1487037797.0,63031,10.38,74268.5,-9.51,-35.17,-35.53,0,*5A
1487037798.25,63032,10.38,74268.8,-9.51,-35.35,-35.65,0,*5C
1487037799.5,63033,10.38,74264.3,-9.53,-35.47,-35.65,0,*5A
1487037800.73,63034,10.38,74264.3,-9.51,-35.47,-35.83,0,*57
1487037801.95,63035,10.38,74266.5,-9.51,-35.35,-35.71,0,*5E
1487037803.18,63036,10.38,74266.3,-9.51,-35.47,-35.83,0,*55
1487037804.43,63037,10.38,74266.0,-9.51,-35.35,-35.83,0,*51
1487037805.69,63038,10.38,74264.8,-9.53,-35.47,-35.83,0,*59
1487037806.92,63039,10.38,74266.5,-9.51,-35.35,-35.71,0,*52
1487037808.12,63040,10.38,74268.3,-9.51,-35.47,-35.71,0,*59
1487037809.34,63041,10.38,74266.0,-9.51,-35.35,-35.71,0,*5D
1487037810.57,63042,10.38,74266.8,-9.51,-35.65,-35.89,0,*5C
1487037811.84,63043,10.38,74264.5,-9.53,-35.53,-35.83,0,*50
1487037813.1,63044,10.38,74266.0,-9.53,-35.53,-35.89,0,*5D
1487037814.32,63045,10.38,74266.3,-9.51,-35.35,-35.71,0,*59
1487037815.57,63046,10.38,74266.3,-9.51,-35.35,-35.83,0,*57
1487037816.78,63047,10.38,74262.3,-9.51,-35.29,-35.71,0,*56
1487037818.03,63048,10.38,74266.8,-9.51,-35.35,-35.83,0,*59
1487037819.25,63049,10.38,74266.0,-9.51,-35.35,-35.71,0,*55
1487037820.49,63050,10.38,74266.0,-9.53,-35.47,-35.89,0,*5D
1487037821.76,63051,10.38,74268.8,-9.53,-35.53,-35.83,0,*53
1487037822.96,63052,10.38,74268.5,-9.51,-35.47,-35.71,0,*5A
1487037824.24,63053,10.38,74266.5,-9.53,-35.35,-35.53,0,*5C
1487037825.47,63054,10.38,74264.8,-9.51,-35.29,-35.53,0,*54
1487037826.73,63055,10.38,74266.8,-9.53,-35.29,-35.65,0,*52
1487037827.98,63056,10.38,74268.3,-9.53,-35.17,-35.65,0,*5C
1487037829.23,63057,10.38,74268.3,-9.53,-35.29,-35.53,0,*55
1487037830.49,63058,10.38,74266.8,-9.53,-35.29,-35.65,0,*5F
1487037831.77,63059,10.38,74270.8,-9.53,-35.35,-35.83,0,*5B
1487037833.02,63060,10.38,74268.3,-9.51,-35.35,-35.65,0,*5B
1487037834.25,63061,10.38,74266.5,-9.51,-35.47,-35.83,0,*57
1487037835.48,63062,10.38,74270.0,-9.53,-35.29,-35.71,0,*53
1487037836.73,63063,10.38,74270.3,-9.53,-35.29,-35.65,0,*57
1487037837.96,63064,10.38,74268.0,-9.51,-35.29,-35.65,0,*52
1487037839.18,63065,10.38,74264.3,-9.51,-35.17,-35.53,0,*5B
1487037840.43,63066,10.38,74264.8,-9.53,-35.17,-35.65,0,*5F
1487037841.66,63067,10.38,74268.8,-9.51,-35.13,-35.53,0,*5D
1487037842.91,63068,10.38,74268.5,-9.53,-35.29,-35.53,0,*59
1487037844.14,63069,10.38,74262.5,-9.51,-35.17,-35.65,0,*52
1487037845.36,63070,10.38,74264.8,-9.51,-35.17,-35.53,0,*5F
1487037846.56,63071,10.38,74270.8,-9.51,-35.13,-35.47,0,*5F
1487037847.79,63072,10.38,74274.5,-9.51,-34.83,-35.17,0,*51
1487037848.99,63073,10.38,74262.3,-9.51,-35.17,-35.47,0,*59
1487037850.21,63074,10.38,74268.3,-9.51,-35.17,-35.53,0,*5B
1487037851.47,63075,10.38,74270.5,-9.49,-34.95,-35.29,0,*55
1487037852.7,63076,10.38,74262.3,-9.51,-35.01,-35.35,0,*5E
1487037853.93,63077,10.38,74264.8,-9.51,-35.13,-35.35,0,*5C
1487037855.16,63078,10.38,74268.8,-9.51,-35.01,-35.35,0,*50
1487037856.39,63079,10.38,74268.5,-9.49,-34.77,-35.13,0,*5C
1487037857.67,63080,10.38,74268.0,-9.49,-34.95,-35.23,0,*55
1487037858.93,63081,10.38,74270.0,-9.49,-34.95,-35.29,0,*5E
1487037860.19,63082,10.38,74270.8,-9.49,-34.95,-35.29,0,*5D
1487037861.48,63083,10.38,74268.0,-9.49,-34.95,-35.41,0,*52
1487037862.76,63084,10.38,74268.3,-9.49,-34.95,-35.23,0,*51
1487037864.02,63085,10.38,74270.5,-9.49,-35.07,-35.29,0,*50
1487037865.3,63086,10.38,74270.8,-9.49,-35.07,-35.41,0,*5D
1487037866.57,63087,10.38,74272.0,-9.45,-35.23,-35.47,0,*50
1487037867.81,63088,10.38,74272.0,-9.45,-35.13,-35.47,0,*5C
1487037869.11,63089,10.38,74270.5,-9.45,-35.07,-35.41,0,*5E
1487037870.38,63090,10.38,74274.3,-9.45,-34.95,-35.13,0,*5B
1487037871.62,63091,10.38,74274.0,-9.45,-34.89,-35.13,0,*57
1487037872.89,63092,10.38,74276.0,-9.45,-34.71,-35.07,0,*56
1487037874.16,63093,10.38,74278.5,-9.45,-34.71,-35.07,0,*57
1487037875.42,63094,10.38,74278.5,-9.45,-34.89,-35.23,0,*51
1487037876.68,63095,10.38,74278.5,-9.45,-34.89,-35.23,0,*50
1487037877.95,63096,10.38,74280.0,-9.45,-34.53,-34.89,0,*55
1487037879.16,63097,10.38,74280.8,-9.43,-34.13,-34.41,0,*52
1487037880.37,63098,10.38,74280.0,-9.43,-33.95,-34.41,0,*54
1487037881.62,63099,10.38,74278.0,-9.41,-34.07,-34.47,0,*5D
1487037882.88,63100,10.38,74274.0,-9.41,-33.89,-34.41,0,*5B
1487037884.09,63101,10.38,74272.0,-9.39,-34.07,-34.25,0,*56
1487037885.33,63102,10.38,74266.5,-9.39,-34.25,-34.53,0,*54
1487037886.6,63103,10.38,74262.3,-9.39,-34.19,-34.53,0,*5A
1487037887.87,63104,10.38,74256.3,-9.37,-34.59,-34.95,0,*5D
1487037889.15,63105,10.38,74258.8,-9.37,-34.83,-35.29,0,*5D
1487037890.45,63106,10.38,74256.3,-9.37,-34.95,-35.35,0,*54
1487037891.72,63107,10.38,74252.8,-9.37,-35.01,-35.35,0,*59
1487037893.0,63108,10.38,74254.3,-9.37,-34.83,-35.29,0,*50
1487037894.25,63109,10.38,74250.3,-9.37,-35.01,-35.47,0,*52
1487037895.49,63110,10.38,74254.0,-9.37,-35.17,-35.47,0,*5D
1487037896.73,63111,10.38,74248.8,-9.37,-35.17,-35.47,0,*5C
1487037897.98,63112,10.38,74256.5,-9.37,-35.01,-35.47,0,*58
1487037899.21,63113,10.38,74256.0,-9.39,-34.77,-35.01,0,*55
1487037900.47,63114,10.38,74260.0,-9.37,-34.35,-34.59,0,*56
1487037901.71,63115,10.38,74258.0,-9.37,-34.41,-34.59,0,*54
1487037903.02,63116,10.38,74256.5,-9.37,-34.65,-34.95,0,*51
1487037904.25,63117,10.38,74250.8,-9.35,-34.89,-35.23,0,*5C
1487037905.49,63118,10.38,74248.8,-9.35,-34.89,-35.23,0,*53
1487037906.73,63119,10.38,74254.3,-9.35,-34.77,-35.07,0,*55
1487037907.96,63120,10.38,74260.0,-9.35,-34.77,-35.13,0,*5A
1487037909.23,63121,10.38,74262.0,-9.33,-34.77,-35.23,0,*5E
1487037910.46,63122,10.38,74260.8,-9.35,-35.13,-35.41,0,*5C
1487037911.73,63123,10.38,74262.0,-9.33,-35.23,-35.59,0,*51
1487037912.97,63124,10.38,74262.8,-9.35,-35.23,-35.47,0,*5F
1487037914.23,63125,10.38,74264.3,-9.35,-35.41,-35.65,0,*5A
1487037915.45,63126,10.38,74270.3,-9.35,-35.29,-35.71,0,*52
1487037916.7,63127,10.38,74264.0,-9.33,-35.47,-35.89,0,*5A
1487037917.92,63128,10.38,74268.0,-9.35,-35.29,-35.71,0,*5C
1487037919.16,63129,10.38,74270.5,-9.35,-35.29,-35.65,0,*58
1487037920.37,63130,10.38,74270.3,-9.35,-35.13,-35.47,0,*59
1487037921.61,63131,10.38,74270.3,-9.35,-35.23,-35.59,0,*54
1487037922.85,63132,10.38,74270.0,-9.35,-35.23,-35.59,0,*57
1487037924.1,63133,10.38,74268.8,-9.35,-34.77,-35.07,0,*5D
1487037925.32,63134,10.38,74268.0,-9.35,-34.47,-34.71,0,*59
1487037926.57,63135,10.38,74266.0,-9.35,-34.53,-34.89,0,*5A
1487037927.81,63136,10.38,74262.0,-9.33,-34.59,-34.89,0,*55
1487037929.08,63137,10.38,74266.0,-9.33,-34.71,-35.07,0,*59
1487037930.33,63138,10.38,74260.3,-9.33,-34.89,-35.29,0,*5D
1487037931.6,63139,10.38,74262.0,-9.35,-35.07,-35.41,0,*53
1487037932.89,63140,10.38,74260.0,-9.33,-35.07,-35.41,0,*5B
1487037934.17,63141,10.38,74266.5,-9.33,-34.95,-35.29,0,*5E
1487037935.46,63142,10.38,74268.3,-9.29,-34.83,-35.23,0,*5B
1487037936.69,63143,10.38,74260.3,-9.31,-34.71,-35.17,0,*59
1487037937.91,63144,10.38,74266.0,-9.31,-34.71,-35.01,0,*59
1487037939.16,63145,10.38,74260.3,-9.31,-34.83,-35.01,0,*55
1487037940.38,63146,10.38,74256.5,-9.31,-34.71,-34.89,0,*5A
1487037941.63,63147,10.38,74258.3,-9.29,-34.71,-35.17,0,*54
1487037942.9,63148,10.38,74252.8,-9.29,-35.01,-35.35,0,*5D
1487037944.18,63149,10.38,74254.3,-9.31,-35.07,-35.53,0,*53
1487037945.47,63150,10.38,74250.5,-9.29,-35.07,-35.41,0,*51
1487037946.75,63151,10.38,74248.0,-9.31,-35.07,-35.41,0,*59
1487037948.03,63152,10.38,74248.0,-9.29,-35.41,-35.65,0,*57
1487037949.29,63153,10.38,74248.5,-9.31,-35.23,-35.65,0,*5B
1487037950.56,63154,10.38,74254.8,-9.29,-35.41,-35.77,0,*52
1487037951.8,63155,10.38,74252.5,-9.31,-35.41,-35.77,0,*5A
1487037953.07,63156,10.38,74256.3,-9.29,-35.23,-35.59,0,*58
1487037954.31,63157,10.38,74258.3,-9.31,-35.23,-35.59,0,*50
1487037955.55,63158,10.38,74258.8,-9.31,-35.17,-35.65,0,*57
1487037956.83,63159,10.38,74258.5,-9.29,-35.35,-35.65,0,*5F
1487037958.12,63160,10.38,74262.8,-9.29,-35.35,-35.65,0,*55
1487037959.39,63161,10.38,74264.3,-9.29,-35.41,-35.77,0,*54
1487037960.63,63162,10.38,74264.5,-9.31,-35.35,-35.59,0,*51
1487037961.93,63163,10.38,74260.3,-9.29,-35.23,-35.83,0,*59
1487037963.19,63164,10.38,74262.8,-9.31,-35.53,-35.83,0,*50
1487037964.48,63165,10.38,74262.8,-9.29,-35.53,-35.83,0,*58
1487037965.74,63166,10.38,74262.0,-9.29,-35.17,-35.53,0,*56
1487037967.0,63167,10.38,74260.0,-9.31,-35.35,-35.65,0,*5B
1487037968.26,63168,10.38,74262.0,-9.31,-35.41,-35.65,0,*57
1487037969.52,63169,10.38,74266.8,-9.31,-35.35,-35.65,0,*55
1487037970.78,63170,10.38,74262.3,-9.31,-35.35,-35.65,0,*5D
1487037972.04,63171,10.38,74258.5,-9.31,-35.35,-35.65,0,*5C
1487037973.3,63172,10.38,74256.3,-9.31,-35.53,-35.83,0,*57
1487037974.55,63173,10.38,74262.3,-9.31,-35.59,-35.83,0,*5C
1487037975.79,63174,10.38,74262.3,-9.31,-35.41,-35.77,0,*59
1487037977.05,63175,10.38,74264.5,-9.31,-35.35,-35.65,0,*58
1487037978.31,63176,10.38,74264.5,-9.31,-35.53,-35.83,0,*53
1487037979.55,63177,10.38,74268.5,-9.31,-35.17,-35.41,0,*5C
1487037980.79,63178,10.38,74268.8,-9.31,-35.17,-35.53,0,*50
1487037982.03,63179,10.38,74274.8,-9.31,-35.23,-35.59,0,*5C
1487037983.27,63180,10.38,74272.3,-9.31,-35.41,-35.77,0,*52
1487037984.54,63181,10.38,74266.0,-9.33,-35.47,-35.83,0,*5C
1487037985.79,63182,10.38,74264.8,-9.33,-35.47,-35.89,0,*55
1487037987.03,63183,10.38,74264.5,-9.35,-35.47,-35.83,0,*58
1487037988.3,63184,10.38,74264.3,-9.33,-35.59,-35.83,0,*56
1487037989.54,63185,10.38,74266.3,-9.33,-35.59,-35.71,0,*5A
1487037990.78,63186,10.38,74264.3,-9.33,-35.59,-35.89,0,*5E
1487037992.03,63187,10.38,74264.0,-9.33,-35.59,-35.89,0,*5F
1487037993.31,63188,10.38,74268.3,-9.33,-35.41,-35.65,0,*5B
1487037994.58,63189,10.38,74268.0,-9.31,-35.41,-35.83,0,*50
1487037995.84,63190,10.38,74268.5,-9.33,-35.59,-35.83,0,*53
1487037997.1,63191,10.38,74264.5,-9.33,-35.41,-35.71,0,*56
1487037998.35,63192,10.38,74268.0,-9.33,-35.59,-35.89,0,*5B
1487037999.6,63193,10.38,74266.3,-9.33,-35.59,-35.89,0,*5A
1487038000.84,63194,10.38,74266.8,-9.33,-35.59,-35.89,0,*5D
1487038002.11,63195,10.38,74266.5,-9.33,-35.29,-35.83,0,*51
1487038003.36,63196,10.38,74268.3,-9.35,-35.47,-35.83,0,*5C
1487038004.6,63197,10.38,74264.8,-9.35,-35.29,-35.65,0,*5D
1487038005.84,63198,10.38,74266.5,-9.33,-35.29,-35.59,0,*5B
1487038007.1,63199,10.38,74264.5,-9.33,-35.41,-35.71,0,*5E
1487038008.32,63200,10.38,74262.3,-9.35,-35.59,-35.89,0,*55
1487038009.57,63201,10.38,74264.8,-9.33,-35.59,-35.89,0,*52
1487038010.82,63202,10.38,74266.8,-9.33,-35.47,-35.89,0,*5E
1487038012.04,63203,10.38,74264.5,-9.35,-35.59,-35.89,0,*56
1487038013.31,63204,10.38,74260.3,-9.33,-35.65,-35.89,0,*58
1487038014.58,63205,10.38,74262.5,-9.33,-35.47,-35.83,0,*53
1487038015.82,63206,10.38,74264.3,-9.33,-35.47,-35.71,0,*5D
1487038017.04,63207,10.38,74266.3,-9.35,-35.59,-35.89,0,*52
1487038018.29,63208,10.38,74268.0,-9.33,-35.59,-35.89,0,*5B
1487038019.53,63209,10.38,74264.8,-9.35,-35.59,-35.83,0,*56
1487038020.77,63210,10.38,74268.3,-9.35,-35.59,-35.83,0,*5E
1487038022.02,63211,10.38,74268.8,-9.35,-35.47,-35.83,0,*50
1487038023.25,63212,10.38,74268.3,-9.35,-35.41,-35.71,0,*58
1487038024.49,63213,10.38,74270.5,-9.35,-35.23,-35.59,0,*57
1487038025.76,63214,10.38,74270.3,-9.35,-35.41,-35.83,0,*53
1487038027.01,63215,10.38,74268.0,-9.35,-35.41,-35.65,0,*5A
1487038028.28,63216,10.38,74264.8,-9.35,-35.23,-35.65,0,*5D
1487038029.54,63217,10.38,74266.5,-9.35,-35.41,-35.83,0,*50
1487038030.77,63218,10.38,74264.5,-9.35,-35.47,-35.89,0,*53
1487038031.99,63219,10.38,74264.3,-9.35,-35.47,-35.89,0,*52
1487038033.26,63220,10.38,74266.8,-9.37,-35.65,-35.89,0,*5A
1487038034.48,63221,10.38,74260.8,-9.35,-35.47,-35.71,0,*5E
1487038035.72,63222,10.38,74262.0,-9.35,-35.29,-35.65,0,*50
1487038036.96,63223,10.38,74262.5,-9.35,-35.41,-35.71,0,*5A
1487038038.19,63224,10.38,74254.0,-9.35,-35.41,-35.71,0,*5D
1487038039.43,63225,10.38,74244.8,-9.35,-35.41,-35.71,0,*5C
1487038040.71,63226,10.38,74270.0,-9.37,-35.35,-35.65,0,*5B
1487038041.98,63227,10.38,74270.0,-9.37,-35.17,-35.53,0,*5F
1487038043.19,63228,10.38,74262.8,-9.35,-35.17,-35.47,0,*57
1487038044.44,63229,10.38,74262.8,-9.35,-35.23,-35.47,0,*51
1487038045.68,63230,10.38,74260.3,-9.35,-35.23,-35.59,0,*56
1487038046.89,63231,10.38,74260.5,-9.35,-35.13,-35.59,0,*54
1487038048.13,63232,10.38,74262.0,-9.35,-35.23,-35.47,0,*5B
1487038049.38,63233,10.38,74262.8,-9.35,-35.41,-35.89,0,*5C
1487038050.59,63234,10.38,74264.8,-9.35,-35.47,-35.71,0,*5A
1487038051.83,63235,10.38,74266.5,-9.35,-35.41,-35.71,0,*5D
1487038053.04,63236,10.38,74262.5,-9.35,-35.13,-35.59,0,*53
1487038054.31,63237,10.38,74266.5,-9.37,-35.29,-35.65,0,*56
1487038055.54,63238,10.38,74264.8,-9.35,-35.41,-35.71,0,*50
1487038056.78,63239,10.38,74264.5,-9.35,-35.29,-35.65,0,*5A
1487038058.03,63240,10.38,74260.3,-9.35,-35.47,-35.83,0,*54
1487038059.27,63241,10.38,74256.8,-9.33,-35.29,-35.59,0,*5C
1487038060.51,63242,10.38,74256.5,-9.35,-35.41,-35.71,0,*5D
1487038061.72,63243,10.38,74260.3,-9.35,-35.29,-35.71,0,*52
1487038062.97,63244,10.38,74258.5,-9.35,-35.41,-35.89,0,*5C
1487038064.21,63245,10.38,74252.3,-9.33,-35.13,-35.29,0,*56
1487038065.48,63246,10.38,74252.5,-9.35,-35.07,-35.41,0,*58
1487038066.72,63247,10.38,74256.5,-9.35,-35.13,-35.65,0,*5A
1487038067.99,63248,10.38,74254.0,-9.33,-35.23,-35.59,0,*5F
1487038069.2,63249,10.38,74252.8,-9.35,-35.13,-35.47,0,*54
1487038070.47,63250,10.38,74258.3,-9.33,-35.13,-35.41,0,*5C
1487038071.71,63251,10.38,74254.5,-9.35,-35.07,-35.47,0,*58
1487038072.95,63252,10.38,74254.5,-9.35,-35.23,-35.59,0,*52
1487038074.19,63253,10.38,74256.0,-9.35,-35.29,-35.65,0,*56
1487038075.43,63254,10.38,74256.8,-9.35,-35.41,-35.71,0,*5A
1487038076.68,63255,10.38,74258.0,-9.33,-35.47,-35.89,0,*5C
1487038077.93,63256,10.38,74254.5,-9.33,-35.47,-35.89,0,*5F
1487038079.22,63257,10.38,74254.8,-9.33,-35.23,-35.65,0,*5E
1487038080.46,63258,10.38,74254.8,-9.35,-35.59,-35.83,0,*52
1487038081.68,63259,10.38,74256.3,-9.35,-35.29,-35.71,0,*59
1487038082.92,63260,10.38,74260.8,-9.35,-35.23,-35.47,0,*5C
1487038084.18,63261,10.38,74270.5,-9.35,-35.41,-35.65,0,*59
1487038085.44,63262,10.38,74268.8,-9.33,-35.23,-35.59,0,*57
1487038086.7,63263,10.38,74264.0,-9.33,-35.41,-35.71,0,*58
1487038087.99,63264,10.38,74256.8,-9.33,-35.41,-35.83,0,*52
1487038089.25,63265,10.38,74260.8,-9.35,-35.23,-35.65,0,*59
1487038090.54,63266,10.38,74254.5,-9.33,-35.41,-35.65,0,*58
1487038091.8,63267,10.38,74264.8,-9.33,-35.23,-35.71,0,*58
1487038093.06,63268,10.38,74266.8,-9.33,-35.29,-35.65,0,*58
1487038094.31,63269,10.38,74266.5,-9.35,-35.29,-35.65,0,*5F
1487038095.56,63270,10.38,74264.0,-9.33,-35.41,-35.71,0,*5A
1487038096.78,63271,10.38,74260.0,-9.35,-35.29,-35.71,0,*53